Auchincruive, United Kingdom

11:38 AM GMT on December 05, 2016 (GMT +0000)
Prestwick

Weather History for EGPK - September, 2013

Change the Weather History Date:

Monday, September 9, 2013

  Actual Average Record
Temperature  
Mean Temperature 54 °F -  
Max Temperature 62 °F 62 °F 71 °F (2004)
Min Temperature 46 °F 46 °F 46 °F (1996)
Degree Days  
Heating Degree Days 11    
Growing Degree Days 4 (Base 50)    
Moisture  
Dew Point 50 °F    
Average Humidity 86    
Maximum Humidity 100    
Minimum Humidity 63    
Precipitation  
Precipitation 0.00 in - - ()
Sea Level Pressure  
Sea Level Pressure 30.05 in    
Wind  
Wind Speed 3 mph ()    
Max Wind Speed 15 mph    
Max Gust Speed -    
Visibility 6.2 miles    
Events Rain    
Averages and records for this station are not official NWS values.
T = Trace of Precipitation, MM = Missing Value Source: Averaged Metar Reports

Daily Weather History Graph

Daily Weather History Graph

Search for Another Location

Airport or City:

Trip Planner

Search our weather history database for the weather conditions in past years. The results will help you decide how hot, cold, wet, or windy it might be!

Date:

Astronomy

Sep. 09, 2013 Rise Set
Actual Time 6:39 AM BST 7:50 PM BST
Civil Twilight 6:01 AM BST 8:28 PM BST
Nautical Twilight 5:14 AM BST 9:14 PM BST
Astronomical Twilight 4:23 AM BST 10:05 PM BST
Moon 11:37 AM BST (9/9) 9:02 PM BST (9/9)
Length of Visible Light 14h 27m
Length of Day
13h 11m
Waxing Crescent, 17% of the Moon is Illuminated
Sep 9
Waxing Crescent
Sep 12
First Quarter
Sep 19
Full
Sep 27
Last Quarter
Oct 5
New

Hourly Weather History & Observations

Time (BST) Temp. Dew Point Humidity Pressure Visibility Wind Dir Wind Speed Gust Speed Precip Events Conditions
12:20 AM 48.2 °F 46.4 °F 93% 29.95 in 6.2 mi ESE 2.3 mph - N/A   Partly Cloudy
12:50 AM 48.2 °F 48.2 °F 100% 29.95 in 6.2 mi Calm Calm - N/A   Partly Cloudy
1:50 AM 48.2 °F 46.4 °F 93% 29.95 in 6.2 mi Calm Calm - N/A   Partly Cloudy
2:50 AM 48.2 °F 46.4 °F 93% 29.95 in 6.2 mi Calm Calm - N/A   Partly Cloudy
3:50 AM 48.2 °F 46.4 °F 93% 29.98 in 6.2 mi Calm Calm - N/A   Partly Cloudy
4:50 AM 46.4 °F 44.6 °F 93% 29.95 in 6.2 mi Calm Calm - N/A   Partly Cloudy
5:50 AM 48.2 °F 46.4 °F 93% 29.98 in 6.2 mi Calm Calm - N/A   Partly Cloudy
6:50 AM 48.2 °F 46.4 °F 93% 29.98 in 6.2 mi Calm Calm - N/A   Partly Cloudy
7:20 AM 48.2 °F 46.4 °F 93% 29.98 in 6.2 mi Calm Calm - N/A   Scattered Clouds
7:50 AM 48.2 °F 46.4 °F 93% 30.01 in 6.2 mi Calm Calm - N/A   Scattered Clouds
8:20 AM 50.0 °F 48.2 °F 94% 30.01 in 6.2 mi Calm Calm - N/A   Scattered Clouds
8:50 AM 51.8 °F 50.0 °F 94% 30.01 in 6.2 mi Calm Calm - N/A   Scattered Clouds
9:20 AM 51.8 °F 50.0 °F 94% 30.04 in 6.2 mi Calm Calm - N/A   Scattered Clouds
9:50 AM 53.6 °F 50.0 °F 88% 30.04 in 6.2 mi Calm Calm - N/A   Scattered Clouds
10:20 AM 53.6 °F 51.8 °F 94% 30.04 in 6.2 mi Calm Calm - N/A   Scattered Clouds
10:50 AM 55.4 °F 51.8 °F 88% 30.04 in 6.2 mi WNW 4.6 mph - N/A   Scattered Clouds
11:20 AM 55.4 °F 51.8 °F 88% 30.04 in 6.2 mi West 8.1 mph - N/A   Scattered Clouds
11:50 AM 57.2 °F 53.6 °F 88% 30.04 in 6.2 mi West 6.9 mph - N/A   Scattered Clouds
12:20 PM 59.0 °F 53.6 °F 82% 30.04 in 6.2 mi WNW 5.8 mph - N/A   Scattered Clouds
12:50 PM 59.0 °F 53.6 °F 82% 30.04 in 6.2 mi West 10.4 mph - N/A   Scattered Clouds
1:20 PM 59.0 °F 53.6 °F 82% 30.04 in 6.2 mi West 9.2 mph - N/A   Scattered Clouds
1:50 PM 59.0 °F 53.6 °F 82% 30.04 in 6.2 mi WNW 6.9 mph - N/A   Scattered Clouds
2:20 PM 62.6 °F 53.6 °F 72% 30.04 in 6.2 mi WNW 12.7 mph - N/A   Scattered Clouds
2:50 PM 60.8 °F 51.8 °F 72% 30.04 in 6.2 mi WNW 15.0 mph - N/A   Scattered Clouds
3:20 PM 62.6 °F 51.8 °F 68% 30.04 in 6.2 mi NW 10.4 mph - N/A   Scattered Clouds
3:50 PM 60.8 °F 50.0 °F 68% 30.06 in 6.2 mi NW 11.5 mph - N/A   Scattered Clouds
4:20 PM 60.8 °F 51.8 °F 72% 30.06 in 6.2 mi WNW 10.4 mph - N/A   Scattered Clouds
4:50 PM 62.6 °F 50.0 °F 63% 30.06 in 6.2 mi NW 15.0 mph - N/A   Scattered Clouds
5:20 PM 60.8 °F 51.8 °F 72% 30.06 in 6.2 mi WNW 13.8 mph - N/A Rain Light Rain
5:50 PM 55.4 °F 50.0 °F 82% 30.09 in 6.2 mi NNE 8.1 mph - N/A Rain Light Rain
6:20 PM 55.4 °F 51.8 °F 88% 30.09 in 6.2 mi Calm Calm - N/A   Scattered Clouds
6:50 PM 55.4 °F 51.8 °F 88% 30.09 in 6.2 mi WNW 6.9 mph - N/A   Scattered Clouds
7:20 PM 55.4 °F 51.8 °F 88% 30.12 in 6.2 mi NNW 2.3 mph - N/A   Scattered Clouds
7:50 PM 55.4 °F 50.0 °F 82% 30.12 in 6.2 mi Variable 2.3 mph - N/A   Scattered Clouds
8:20 PM 55.4 °F 51.8 °F 88% 30.12 in 6.2 mi NW 5.8 mph - N/A   Scattered Clouds
8:50 PM 53.6 °F 50.0 °F 88% 30.15 in 6.2 mi NNW 3.5 mph - N/A   Scattered Clouds
9:20 PM 51.8 °F 48.2 °F 88% 30.15 in 6.2 mi Calm Calm - N/A   Scattered Clouds
9:50 PM 50.0 °F 46.4 °F 87% 30.15 in 6.2 mi North 2.3 mph - N/A   Scattered Clouds
10:20 PM 50.0 °F 46.4 °F 87% 30.15 in 6.2 mi North 3.5 mph - N/A   Scattered Clouds
10:50 PM 50.0 °F 46.4 °F 87% 30.18 in 6.2 mi North 3.5 mph - N/A   Scattered Clouds
11:20 PM 50.0 °F 48.2 °F 94% 30.18 in 6.2 mi NNW 5.8 mph - N/A   Scattered Clouds
11:50 PM 50.0 °F 48.2 °F 94% 30.18 in 6.2 mi Variable 3.5 mph - N/A   Partly Cloudy